N0DBM Weather Reports


time (UTC)temp
C
wind
direction
speed
KPH
gust
KPH
rain 1hr
cm
rain 24hr
cm
rain mn
cm
humidity
%
barometer
mb
20260906155516 28 190 1.6 9.7 0.00 0.00 0.00 73 1017.8
20260906155018 28 190 1.6 6.4 0.00 0.00 0.00 74 1017.6
20260906154516 28 190 1.6 6.4 0.00 0.00 0.00 74 1017.6
20260906154016 27 190 1.6 6.4 0.00 0.00 0.00 74 1017.5
20260906153515 27 190 3.2 6.4 0.00 0.00 0.00 74 1017.5
20260906153012 27 190 1.6 6.4 0.00 0.00 0.00 74 1017.4
20260906152503 27 190 1.6 6.4 0.00 0.00 0.00 73 1017.4
20260906152002 27 190 1.6 6.4 0.00 0.00 0.00 74 1017.4
20260906151506 27 190 0.0 6.4 0.00 0.00 0.00 74 1017.5
20260906151002 27 190 1.6 6.4 0.00 0.00 0.00 74 1017.5
20260906150508 27 190 1.6 6.4 0.00 0.00 0.00 74 1017.4
20260906150008 27 190 1.6 4.8 0.00 0.00 0.00 73 1017.4
20260906145506 27 190 1.6 4.8 0.00 0.00 0.00 73 1017.3
20260906145006 27 190 1.6 3.2 0.00 0.00 0.00 73 1017.3
20260906144519 26 190 1.6 4.8 0.00 0.00 0.00 74 1017.3
20260906144009 26 190 1.6 4.8 0.00 0.00 0.00 74 1017.5
20260906143508 26 190 1.6 4.8 0.00 0.00 0.00 75 1017.4
20260906143021 26 190 0.0 3.2 0.00 0.00 0.00 77 1017.4
20260906142511 26 190 1.6 4.8 0.00 0.00 0.00 78 1017.3
20260906142012 25 190 1.6 6.4 0.00 0.00 0.00 79 1017.3
20260906141509 25 190 1.6 6.4 0.00 0.00 0.00 80 1017.3
20260906141004 25 190 0.0 4.8 0.00 0.00 0.00 81 1017.3
20260906140502 25 190 1.6 4.8 0.00 0.00 0.00 82 1017.3
20260906140012 25 190 1.6 4.8 0.00 0.00 0.00 82 1017.3
20260906135503 25 190 1.6 4.8 0.00 0.00 0.00 83 1017.3
20260906135006 25 190 1.6 4.8 0.00 0.00 0.00 83 1017.4
20260906134514 24 190 1.6 4.8 0.00 0.00 0.00 84 1017.3
20260906134008 24 190 1.6 4.8 0.00 0.00 0.00 85 1017.3
20260906133507 23 190 1.6 3.2 0.00 0.00 0.00 86 1017.2
20260906133017 23 190 0.0 4.8 0.00 0.00 0.00 87 1017.1
20260906132512 23 190 1.6 6.4 0.00 0.00 0.00 87 1017.1
20260906132011 23 190 3.2 6.4 0.00 0.00 0.00 87 1017.0
20260906131525 23 190 1.6 3.2 0.00 0.00 0.00 88 1017.0
20260906131011 23 190 0.0 3.2 0.00 0.00 0.00 88 1016.8
20260906130514 23 190 0.0 3.2 0.00 0.00 0.00 89 1016.7
20260906130006 23 190 0.0 3.2 0.00 0.00 0.00 89 1016.7
20260906125504 23 190 0.0 3.2 0.00 0.00 0.00 89 1016.8
20260906125003 23 190 0.0 4.8 0.00 0.00 0.00 90 1016.8
20260906124511 22 190 0.0 4.8 0.00 0.00 0.00 90 1016.8
20260906124006 22 190 0.0 4.8 0.00 0.00 0.00 90 1016.8
20260906123507 22 190 1.6 4.8 0.00 0.00 0.00 90 1016.8
20260906123016 22 190 0.0 3.2 0.00 0.00 0.00 90 1016.6
20260906122507 22 190 0.0 0.0 0.00 0.00 0.00 90 1016.5
20260906122009 22 190 0.0 1.6 0.00 0.00 0.00 90 1016.6
20260906121522 22 190 0.0 1.6 0.00 0.00 0.00 90 1016.6
20260906121014 22 190 0.0 1.6 0.00 0.00 0.00 90 1016.5
20260906120510 22 190 0.0 4.8 0.00 0.00 0.00 90 1016.4
20260906120026 22 190 0.0 4.8 0.00 0.00 0.00 90 1016.2
20260906115514 22 190 0.0 3.2 0.00 0.00 0.00 90 1016.3
20260906115003 23 190 0.0 1.6 0.00 0.00 0.00 90 1016.4
20260906114508 23 190 0.0 1.6 0.00 0.00 0.00 90 1016.4
20260906114010 23 190 0.0 1.6 0.00 0.00 0.00 90 1016.2
20260906113505 23 190 0.0 1.6 0.00 0.00 0.00 90 1016.3
20260906113012 23 190 0.0 1.6 0.00 0.00 0.00 90 1016.3
20260906112507 23 190 0.0 1.6 0.00 0.00 0.00 90 1016.3
20260906112007 23 190 0.0 3.2 0.00 0.00 0.00 90 1016.3
20260906111516 23 190 0.0 3.2 0.00 0.00 0.00 90 1016.3
20260906111008 23 190 0.0 3.2 0.00 0.00 0.00 89 1016.2
20260906110508 23 190 0.0 0.0 0.00 0.00 0.00 89 1016.2
20260906110023 23 190 0.0 0.0 0.00 0.00 0.00 89 1016.1
20260906105513 23 190 0.0 0.0 0.00 0.00 0.00 89 1016.1
20260906105015 23 190 0.0 1.6 0.00 0.00 0.00 90 1016.0
20260906104530 23 190 0.0 4.8 0.00 0.00 0.00 90 1016.0
20260906104013 23 190 0.0 4.8 0.00 0.00 0.00 89 1016.0
20260906103503 23 190 0.0 0.0 0.00 0.00 0.00 89 1015.9
20260906103008 23 190 0.0 1.6 0.00 0.00 0.00 89 1015.8
20260906102503 23 190 0.0 1.6 0.00 0.00 0.00 89 1015.9
20260906102006 23 190 0.0 0.0 0.00 0.00 0.00 90 1015.8
20260906101514 23 190 0.0 0.0 0.00 0.00 0.00 90 1015.8
20260906101006 23 190 0.0 1.6 0.00 0.00 0.00 89 1015.8
20260906100508 23 190 0.0 1.6 0.00 0.00 0.00 89 1015.7
20260906100019 23 190 0.0 3.2 0.00 0.00 0.00 89 1015.6
20260906095509 23 190 0.0 3.2 0.00 0.00 0.00 89 1015.7
20260906095010 23 190 0.0 4.8 0.00 0.00 0.00 89 1015.7
20260906094527 23 190 0.0 4.8 0.00 0.00 0.00 89 1015.7
20260906094012 24 190 0.0 4.8 0.00 0.00 0.00 89 1015.6
20260906093514 24 190 0.0 3.2 0.00 0.00 0.00 89 1015.6
20260906093038 24 190 0.0 3.2 0.00 0.00 0.00 89 1015.5
20260906092519 24 190 1.6 3.2 0.00 0.00 0.00 89 1015.4
20260906092003 24 190 0.0 4.8 0.00 0.00 0.00 90 1015.3
20260906091507 24 190 0.0 4.8 0.00 0.00 0.00 89 1015.3
20260906091008 24 190 0.0 4.8 0.00 0.00 0.00 89 1015.2
20260906090510 24 190 0.0 4.8 0.00 0.00 0.00 90 1015.2
20260906090016 24 190 1.6 4.8 0.00 0.00 0.00 90 1015.1
20260906085509 24 190 0.0 4.8 0.00 0.00 0.00 90 1015.2
20260906085011 24 190 0.0 4.8 0.00 0.00 0.00 90 1015.2
20260906084521 24 190 1.6 4.8 0.00 0.00 0.00 90 1015.1
20260906084012 25 190 1.6 4.8 0.00 0.00 0.00 90 1015.1
20260906083513 25 190 0.0 4.8 0.00 0.00 0.00 90 1015.1
20260906083027 25 190 0.0 4.8 0.00 0.00 0.00 89 1015.1
20260906082517 25 190 1.6 3.2 0.00 0.00 0.00 89 1015.0
20260906082016 25 190 0.0 3.2 0.00 0.00 0.00 89 1015.0
20260906081533 25 190 0.0 4.8 0.00 0.00 0.00 89 1014.9
20260906081014 25 190 1.6 6.4 0.00 0.00 0.00 89 1014.9
20260906080504 25 190 1.6 6.4 0.00 0.00 0.00 89 1015.0
20260906080014 25 190 1.6 4.8 0.00 0.00 0.00 89 1015.0
20260906075506 25 190 1.6 6.4 0.00 0.00 0.00 89 1015.1
20260906075009 25 190 1.6 6.4 0.00 0.00 0.00 89 1015.0
20260906074518 25 190 1.6 6.4 0.00 0.00 0.00 88 1015.1
20260906074008 25 190 1.6 3.2 0.00 0.00 0.00 88 1015.0
20260906073508 25 190 0.0 4.8 0.00 0.00 0.00 88 1015.1
20260906073027 25 190 1.6 4.8 0.00 0.00 0.00 88 1015.1
20260906072510 25 190 0.0 4.8 0.00 0.00 0.00 87 1015.1
20260906072012 25 190 1.6 4.8 0.00 0.00 0.00 87 1015.1
20260906071528 25 190 0.0 3.2 0.00 0.00 0.00 87 1015.1
20260906071014 25 190 0.0 3.2 0.00 0.00 0.00 87 1015.1
20260906070517 25 190 0.0 3.2 0.00 0.00 0.00 86 1015.2
20260906070033 25 190 0.0 1.6 0.00 0.00 0.00 86 1015.1
20260906065514 25 190 0.0 0.0 0.00 0.00 0.00 86 1015.1
20260906065006 25 190 0.0 0.0 0.00 0.00 0.00 85 1015.1
20260906064517 25 190 0.0 0.0 0.00 0.00 0.00 85 1015.2
20260906064007 25 190 0.0 0.0 0.00 0.00 0.00 85 1015.1
20260906063510 25 190 0.0 0.0 0.00 0.00 0.00 85 1015.1
20260906063020 25 190 0.0 0.0 0.00 0.00 0.00 84 1015.1
20260906062511 26 190 0.0 0.0 0.00 0.00 0.00 84 1015.1
20260906062011 26 190 0.0 0.0 0.00 0.00 0.00 84 1015.2
20260906061526 26 190 0.0 0.0 0.00 0.00 0.00 84 1015.2
20260906061014 26 190 0.0 0.0 0.00 0.00 0.00 83 1015.2
20260906060519 26 190 0.0 0.0 0.00 0.00 0.00 83 1015.2
20260906060034 26 190 0.0 0.0 0.00 0.00 0.00 83 1015.3
20260906055515 26 190 0.0 0.0 0.00 0.00 0.00 83 1015.3
20260906055015 26 190 0.0 0.0 0.00 0.00 0.00 82 1015.2
20260906054533 26 190 0.0 0.0 0.00 0.00 0.00 82 1015.2
20260906054016 26 190 0.0 0.0 0.00 0.00 0.00 82 1015.3
20260906053506 26 190 0.0 0.0 0.00 0.00 0.00 82 1015.3
20260906053021 26 190 0.0 0.0 0.00 0.00 0.00 82 1015.2
20260906052508 26 190 0.0 0.0 0.00 0.00 0.00 81 1015.1
20260906052011 26 190 0.0 0.0 0.00 0.00 0.00 81 1015.1
20260906051520 26 190 0.0 0.0 0.00 0.00 0.00 81 1015.1
20260906051010 26 190 0.0 0.0 0.00 0.00 0.00 81 1015.1
20260906050517 26 190 0.0 0.0 0.00 0.00 0.00 81 1015.0
20260906050032 26 190 0.0 0.0 0.00 0.00 0.00 80 1015.1
20260906045515 26 190 0.0 0.0 0.00 0.00 0.00 80 1015.0
20260906045014 26 190 0.0 0.0 0.00 0.00 0.00 80 1014.9
20260906044533 27 190 0.0 0.0 0.00 0.00 0.00 79 1015.0
20260906044018 27 190 0.0 0.0 0.00 0.00 0.00 79 1015.0
20260906043517 27 190 0.0 0.0 0.00 0.00 0.00 79 1015.0
20260906043033 27 190 0.0 0.0 0.00 0.00 0.00 79 1014.9
20260906042513 27 190 0.0 0.0 0.00 0.00 0.00 78 1014.9
20260906042006 27 190 0.0 0.0 0.00 0.00 0.00 78 1014.9
20260906041523 27 190 0.0 0.0 0.00 0.00 0.00 78 1014.9
20260906041010 27 190 0.0 0.0 0.00 0.00 0.00 77 1014.9
20260906040511 27 190 0.0 0.0 0.00 0.00 0.00 77 1014.9
20260906040024 27 190 0.0 0.0 0.00 0.00 0.00 77 1014.7
20260906035511 27 190 0.0 0.0 0.00 0.00 0.00 76 1014.7
20260906035015 27 190 0.0 0.0 0.00 0.00 0.00 76 1014.6
20260906034531 27 190 0.0 0.0 0.00 0.00 0.00 76 1014.6
20260906034004 27 190 0.0 0.0 0.00 0.00 0.00 76 1014.5
20260906033504 27 190 0.0 0.0 0.00 0.00 0.00 75 1014.4
20260906033016 27 190 0.0 0.0 0.00 0.00 0.00 75 1014.3
20260906032505 27 190 0.0 0.0 0.00 0.00 0.00 75 1014.3
20260906032004 28 190 0.0 0.0 0.00 0.00 0.00 74 1014.4
20260906031516 28 190 0.0 0.0 0.00 0.00 0.00 74 1014.3
20260906031008 28 190 0.0 0.0 0.00 0.00 0.00 74 1014.2
20260906030508 28 190 0.0 0.0 0.00 0.00 0.00 73 1014.1
20260906030023 28 190 0.0 0.0 0.00 0.00 0.00 73 1014.0
20260906025511 28 190 0.0 0.0 0.00 0.00 0.00 73 1014.1
20260906025003 28 190 0.0 0.0 0.00 0.00 0.00 72 1014.1
20260906024505 28 190 0.0 0.0 0.00 0.00 0.00 72 1014.0
20260906024007 28 190 0.0 0.0 0.00 0.00 0.00 71 1013.9
20260906023503 28 190 0.0 0.0 0.00 0.00 0.00 71 1013.8
20260906023007 28 190 0.0 0.0 0.00 0.00 0.00 70 1013.8
20260906022503 29 190 0.0 0.0 0.00 0.00 0.00 70 1013.9
20260906022006 29 190 0.0 0.0 0.00 0.00 0.00 69 1013.8
20260906021517 29 190 0.0 0.0 0.00 0.00 0.00 69 1013.7
20260906021007 29 190 0.0 0.0 0.00 0.00 0.00 68 1013.8
20260906020510 29 190 0.0 0.0 0.00 0.00 0.00 67 1013.8
20260906020020 29 190 0.0 1.6 0.00 0.00 0.00 66 1013.6
20260906015510 30 190 0.0 3.2 0.00 0.00 0.00 66 1013.6
20260906015009 30 190 1.6 4.8 0.00 0.00 0.00 65 1013.5
20260906014532 30 190 0.0 4.8 0.00 0.00 0.00 64 1013.5
20260906014011 30 190 1.6 4.8 0.00 0.00 0.00 64 1013.3
20260906013504 30 190 0.0 0.0 0.00 0.00 0.00 63 1013.3
20260906013005 30 190 0.0 0.0 0.00 0.00 0.00 63 1013.2
20260906012503 30 190 0.0 0.0 0.00 0.00 0.00 62 1013.2
20260906012005 30 190 0.0 0.0 0.00 0.00 0.00 62 1013.0
20260906011510 30 190 0.0 0.0 0.00 0.00 0.00 61 1013.1
20260906011006 31 190 0.0 0.0 0.00 0.00 0.00 60 1013.0
20260906010507 31 190 0.0 0.0 0.00 0.00 0.00 60 1012.8
20260906010014 31 190 0.0 0.0 0.00 0.00 0.00 59 1012.9
20260906005508 31 190 0.0 0.0 0.00 0.00 0.00 59 1012.9
20260906005012 31 190 0.0 0.0 0.00 0.00 0.00 58 1013.0
20260906004519 31 190 0.0 0.0 0.00 0.00 0.00 58 1012.9
20260906004012 31 190 0.0 0.0 0.00 0.00 0.00 57 1013.0
20260906003511 31 190 0.0 0.0 0.00 0.00 0.00 57 1012.9
20260906003028 32 190 0.0 3.2 0.00 0.00 0.00 56 1012.8
20260906002504 32 190 0.0 3.2 0.00 0.00 0.00 56 1012.8
20260906002004 32 190 0.0 1.6 0.00 0.00 0.00 55 1012.9
20260906001508 32 190 0.0 1.6 0.00 0.00 0.00 55 1012.9
20260906001003 32 190 0.0 0.0 0.00 0.00 0.00 54 1012.9
20260906000503 33 190 0.0 3.2 0.00 0.00 0.00 53 1012.8
20260906000010 33 190 0.0 3.2 0.00 0.00 0.00 52 1012.8
20260905235508 33 190 1.6 6.4 0.00 0.00 0.00 52 1012.8
20260905235008 33 190 1.6 11.3 0.00 0.00 0.00 51 1012.8
20260905234514 33 190 3.2 11.3 0.00 0.00 0.00 50 1012.9
20260905234011 34 190 6.4 8.0 0.00 0.00 0.00 49 1012.8
20260905233512 35 190 0.0 3.2 0.00 0.00 0.00 49 1012.7
20260905233026 35 190 0.0 4.8 0.00 0.00 0.00 47 1012.8
20260905232512 35 190 1.6 4.8 0.00 0.00 0.00 47 1012.7
20260905232014 35 190 0.0 4.8 0.00 0.00 0.00 48 1012.6
20260905231530 35 190 0.0 4.8 0.00 0.00 0.00 47 1012.5
20260905231003 35 190 1.6 4.8 0.00 0.00 0.00 46 1012.5
20260905230502 35 190 0.0 6.4 0.00 0.00 0.00 46 1012.5
20260905230008 35 190 1.6 6.4 0.00 0.00 0.00 46 1012.5
20260905225504 35 190 1.6 8.0 0.00 0.00 0.00 46 1012.4
20260905225005 35 190 1.6 8.0 0.00 0.00 0.00 46 1012.5
20260905224518 35 190 1.6 6.4 0.00 0.00 0.00 45 1012.5
20260905224006 35 190 1.6 6.4 0.00 0.00 0.00 45 1012.4
20260905223509 36 190 0.0 8.0 0.00 0.00 0.00 45 1012.4
20260905223018 36 190 3.2 8.0 0.00 0.00 0.00 44 1012.4
20260905222510 36 190 3.2 6.4 0.00 0.00 0.00 45 1012.3
20260905222009 36 190 4.8 6.4 0.00 0.00 0.00 44 1012.4
20260905221533 36 190 3.2 9.7 0.00 0.00 0.00 44 1012.5
20260905221012 36 190 4.8 9.7 0.00 0.00 0.00 44 1012.4
20260905220515 36 190 4.8 9.7 0.00 0.00 0.00 43 1012.4
20260905220030 36 190 3.2 8.0 0.00 0.00 0.00 43 1012.4
20260905215516 36 190 3.2 11.3 0.00 0.00 0.00 44 1012.4
20260905215003 36 190 4.8 11.3 0.00 0.00 0.00 44 1012.4
20260905214511 36 190 3.2 9.7 0.00 0.00 0.00 42 1012.5
20260905214006 36 190 4.8 12.9 0.00 0.00 0.00 44 1012.4
20260905213508 36 190 6.4 12.9 0.00 0.00 0.00 44 1012.5
20260905213015 36 190 4.8 9.7 0.00 0.00 0.00 43 1012.7
20260905212506 36 190 3.2 9.7 0.00 0.00 0.00 44 1012.7
20260905212010 36 190 6.4 8.0 0.00 0.00 0.00 42 1012.8
20260905211521 36 190 3.2 8.0 0.00 0.00 0.00 43 1012.9
20260905211010 36 190 3.2 11.3 0.00 0.00 0.00 42 1013.0
20260905210510 36 190 6.4 11.3 0.00 0.00 0.00 42 1013.1
20260905210030 36 190 3.2 12.9 0.00 0.00 0.00 43 1013.1
20260905205512 36 190 4.8 12.9 0.00 0.00 0.00 43 1013.2
20260905205016 36 190 4.8 14.5 0.00 0.00 0.00 43 1013.3
20260905204531 35 190 9.7 14.5 0.00 0.00 0.00 43 1013.4
20260905204013 36 190 8.0 12.9 0.00 0.00 0.00 42 1013.4
20260905203503 36 190 4.8 12.9 0.00 0.00 0.00 42 1013.5
20260905203010 36 190 3.2 12.9 0.00 0.00 0.00 42 1013.5
20260905202506 36 190 3.2 14.5 0.00 0.00 0.00 44 1013.6
20260905202008 36 190 6.4 14.5 0.00 0.00 0.00 43 1013.6
20260905201521 36 190 1.6 6.4 0.00 0.00 0.00 44 1013.6
20260905201009 35 190 3.2 9.7 0.00 0.00 0.00 44 1013.7
20260905200511 36 190 6.4 9.7 0.00 0.00 0.00 44 1013.7
20260905200023 36 190 4.8 8.0 0.00 0.00 0.00 43 1013.8
20260905195515 36 190 1.6 8.0 0.00 0.00 0.00 44 1013.9
20260905195013 35 190 4.8 16.1 0.00 0.00 0.00 44 1013.9
20260905194529 35 190 6.4 16.1 0.00 0.00 0.00 44 1014.0
20260905194012 35 190 9.7 14.5 0.00 0.00 0.00 44 1013.9
20260905193514 36 190 4.8 11.3 0.00 0.00 0.00 44 1014.0
20260905193030 36 190 4.8 11.3 0.00 0.00 0.00 43 1014.0
20260905192518 36 190 4.8 12.9 0.00 0.00 0.00 44 1014.0
20260905192005 36 190 6.4 14.5 0.00 0.00 0.00 44 1014.1
20260905191512 37 190 8.0 14.5 0.00 0.00 0.00 41 1014.0
20260905191006 37 190 3.2 11.3 0.00 0.00 0.00 40 1014.0
20260905190506 37 190 0.0 11.3 0.00 0.00 0.00 40 1014.0
20260905190020 37 190 3.2 11.3 0.00 0.00 0.00 40 1014.1
20260905185511 36 190 3.2 9.7 0.00 0.00 0.00 42 1014.2
20260905185011 36 190 4.8 14.5 0.00 0.00 0.00 42 1014.3
20260905184528 36 190 4.8 14.5 0.00 0.00 0.00 42 1014.4
20260905184004 37 190 4.8 12.9 0.00 0.00 0.00 42 1014.4
20260905183502 36 190 4.8 12.9 0.00 0.00 0.00 42 1014.4
20260905183004 36 190 8.0 12.9 0.00 0.00 0.00 42 1014.4
20260905182501 37 190 4.8 9.7 0.00 0.00 0.00 40 1014.4
20260905182002 36 190 1.6 12.9 0.00 0.00 0.00 41 1014.4
20260905181507 36 190 3.2 12.9 0.00 0.00 0.00 42 1014.4
20260905181004 36 190 3.2 6.4 0.00 0.00 0.00 40 1014.5
20260905180503 36 190 3.2 14.5 0.00 0.00 0.00 41 1014.5
20260905180004 36 190 6.4 14.5 0.00 0.00 0.00 41 1014.6
20260905175502 36 190 3.2 8.0 0.00 0.00 0.00 41 1014.6
20260905175002 36 190 3.2 12.9 0.00 0.00 0.00 42 1014.6
20260905174513 36 190 4.8 12.9 0.00 0.00 0.00 43 1014.7
20260905174003 36 190 3.2 8.0 0.00 0.00 0.00 43 1014.7
20260905173503 36 190 1.6 16.1 0.00 0.00 0.00 44 1014.9
20260905173020 35 190 3.2 16.1 0.00 0.00 0.00 44 1015.0
20260905172503 35 190 4.8 14.5 0.00 0.00 0.00 44 1015.1
20260905172003 36 190 6.4 14.5 0.00 0.00 0.00 42 1015.2
20260905171504 36 190 4.8 9.7 0.00 0.00 0.00 43 1015.3
20260905171002 36 190 3.2 6.4 0.00 0.00 0.00 43 1015.3
20260905170502 36 190 1.6 6.4 0.00 0.00 0.00 44 1015.4
20260905170005 36 190 3.2 11.3 0.00 0.00 0.00 44 1015.4
20260905165503 35 190 3.2 11.3 0.00 0.00 0.00 46 1015.4
20260905165003 36 190 1.6 11.3 0.00 0.00 0.00 45 1015.4
20260905164507 35 190 3.2 11.3 0.00 0.00 0.00 43 1015.6
20260905164002 35 190 1.6 9.7 0.00 0.00 0.00 47 1015.6
20260905163503 35 190 1.6 9.7 0.00 0.00 0.00 49 1015.6
20260905163008 35 190 4.8 9.7 0.00 0.00 0.00 49 1015.6
20260905162503 35 190 3.2 9.7 0.00 0.00 0.00 51 1015.5
20260905162002 35 190 1.6 9.7 0.00 0.00 0.00 51 1015.4
20260905161507 34 190 4.8 11.3 0.00 0.00 0.00 50 1015.4
20260905161004 34 190 6.4 11.3 0.00 0.00 0.00 48 1015.4
20260905160503 34 190 3.2 9.7 0.00 0.00 0.00 49 1015.3
20260905160008 34 190 6.4 9.7 0.00 0.00 0.00 48 1015.3